Moscow Sheremetyevo, Russia

11:10 AM MSK on June 20, 2018 (GMT +0300)
Sheremetyevo

Weather History for UUEE - August, 2017

Change the Weather History Date:

Saturday, August 12, 2017

  Actual Average Record
Temperature  
Mean Temperature 66 °F -  
Max Temperature 77 °F 69 °F 89 °F (2010)
Min Temperature 55 °F 51 °F 48 °F (1996)
Cooling Degree Days 1    
Growing Degree Days 16 (Base 50)    
Moisture  
Dew Point 57 °F    
Average Humidity 71    
Maximum Humidity 100    
Minimum Humidity 44    
Precipitation  
Precipitation 0.00 in - - ()
Sea Level Pressure  
Sea Level Pressure 30.04 in    
Wind  
Wind Speed 4 mph ()    
Max Wind Speed 7 mph    
Max Gust Speed -    
Visibility 6.0 miles    
Events Fog    
Averages and records for this station are not official NWS values.
T = Trace of Precipitation, MM = Missing Value Source: Averaged Metar Reports

Daily Weather History Graph

Daily Weather History Graph

Search for Another Location

Airport or City:

Astronomy

Aug. 12, 2017 Rise Set
Actual Time 4:55 AM MSK 8:13 PM MSK
Civil Twilight 4:10 AM MSK 8:57 PM MSK
Nautical Twilight 3:09 AM MSK 9:57 PM MSK
Astronomical Twilight 1:32 AM MSK 11:29 PM MSK
Moon 10:05 PM MSK (8/12) 10:15 AM MSK (8/12)
Length of Visible Light 16h 46m
Length of Day
15h 18m
Waning Gibbous, 78% of the Moon is Illuminated
Aug 12
Waning Gibbous
Aug 15
Last Quarter
Aug 21
New
Aug 29
First Quarter
Sep 6
Full

Hourly Weather History & Observations

Time (MSK) Temp. Dew Point Humidity Pressure Visibility Wind Dir Wind Speed Gust Speed Precip Events Conditions
12:00 AM 62.6 °F 60.8 °F 94% 30.01 in - NNW 6.7 mph - N/A   Clear
12:30 AM 62.6 °F 60.8 °F 94% 30.01 in - North 4.5 mph - N/A   Clear
1:00 AM 62.6 °F 60.8 °F 94% 30.01 in - NNW 4.5 mph - N/A   Clear
1:30 AM 60.8 °F 59.0 °F 94% 30.01 in - NNW 4.5 mph - N/A   Clear
2:00 AM 60.8 °F 59.0 °F 94% 30.01 in - NW 4.5 mph - N/A   Clear
2:30 AM 59.0 °F 57.2 °F 94% 30.04 in - NNW 4.5 mph - N/A   Clear
3:00 AM 59.0 °F 57.2 °F 94% 30.04 in - NNW 6.7 mph - N/A   Clear
3:30 AM 57.2 °F 57.2 °F 100% 30.04 in - NW 4.5 mph - N/A   Clear
4:00 AM 55.4 °F 55.4 °F 100% 30.04 in 5.6 mi WSW 2.2 mph - N/A Fog Shallow Fog
4:30 AM 57.2 °F 55.4 °F 94% 30.04 in 6.2 mi WSW 2.2 mph - N/A Fog Shallow Fog
5:00 AM 55.4 °F 53.6 °F 94% 30.04 in 6.2 mi Calm Calm - N/A Fog Shallow Fog
5:30 AM 55.4 °F 55.4 °F 100% 30.04 in 5.6 mi WNW 2.2 mph - N/A   Unknown
6:00 AM 57.2 °F 55.4 °F 94% 30.04 in 5.6 mi Variable 2.2 mph - N/A   Unknown
6:30 AM 60.8 °F 57.2 °F 88% 30.04 in - NW 2.2 mph - N/A   Clear
7:00 AM 62.6 °F 59.0 °F 88% 30.04 in - Calm Calm - N/A   Clear
7:30 AM 64.4 °F 59.0 °F 83% 30.06 in - Variable 2.2 mph - N/A   Clear
8:00 AM 66.2 °F 59.0 °F 78% 30.06 in - NNW 2.2 mph - N/A   Clear
8:30 AM 68.0 °F 57.2 °F 68% 30.06 in - North 4.5 mph - N/A   Clear
9:00 AM 69.8 °F 59.0 °F 68% 30.06 in - NNW 4.5 mph - N/A   Clear
9:30 AM 69.8 °F 55.4 °F 60% 30.06 in - North 4.5 mph - N/A   Clear
10:00 AM 71.6 °F 57.2 °F 60% 30.06 in - North 4.5 mph - N/A   Clear
10:30 AM 71.6 °F 57.2 °F 60% 30.06 in - WNW 4.5 mph - N/A   Clear
11:00 AM 73.4 °F 57.2 °F 57% 30.06 in 6.2 mi Variable 2.2 mph - N/A   Scattered Clouds
11:30 AM 73.4 °F 55.4 °F 53% 30.06 in 6.2 mi NE 6.7 mph - N/A   Scattered Clouds
12:00 PM 73.4 °F 53.6 °F 50% 30.06 in 6.2 mi NNE 6.7 mph - N/A   Scattered Clouds
12:30 PM 75.2 °F 55.4 °F 50% 30.06 in 6.2 mi Variable 4.5 mph - N/A   Scattered Clouds
1:00 PM 73.4 °F 55.4 °F 53% 30.06 in 6.2 mi Variable 4.5 mph - N/A   Scattered Clouds
1:30 PM 75.2 °F 55.4 °F 50% 30.06 in 6.2 mi Variable 4.5 mph - N/A   Scattered Clouds
2:00 PM 75.2 °F 55.4 °F 50% 30.06 in - ESE 4.5 mph - N/A   Clear
2:30 PM 77.0 °F 53.6 °F 44% 30.06 in - Variable 2.2 mph - N/A   Clear
3:00 PM 77.0 °F 55.4 °F 47% 30.06 in - East 4.5 mph - N/A   Clear
3:30 PM 77.0 °F 55.4 °F 47% 30.04 in - WNW 4.5 mph - N/A   Clear
4:00 PM 73.4 °F 55.4 °F 53% 30.04 in - North 6.7 mph - N/A   Clear
4:30 PM 77.0 °F 55.4 °F 47% 30.04 in - Variable 2.2 mph - N/A   Clear
5:00 PM 77.0 °F 55.4 °F 47% 30.04 in - Variable 2.2 mph - N/A   Clear
5:30 PM 75.2 °F 57.2 °F 53% 30.04 in - ENE 4.5 mph - N/A   Clear
6:00 PM 75.2 °F 57.2 °F 53% 30.01 in - East 4.5 mph - N/A   Clear
6:30 PM 75.2 °F 57.2 °F 53% 30.01 in - ENE 6.7 mph - N/A   Clear
7:00 PM 73.4 °F 57.2 °F 57% 30.01 in - ENE 6.7 mph - N/A   Clear
7:30 PM 71.6 °F 57.2 °F 60% 30.04 in - ENE 6.7 mph - N/A   Clear
8:00 PM 68.0 °F 59.0 °F 73% 30.04 in - ENE 6.7 mph - N/A   Clear
8:30 PM 66.2 °F 57.2 °F 73% 30.01 in - ENE 6.7 mph - N/A   Clear
9:00 PM 68.0 °F 57.2 °F 68% 30.01 in - ENE 6.7 mph - N/A   Clear
9:30 PM 69.8 °F 57.2 °F 64% 30.04 in - East 6.7 mph - N/A   Clear
10:00 PM 69.8 °F 59.0 °F 68% 30.01 in - East 6.7 mph - N/A   Clear
10:30 PM 60.8 °F 57.2 °F 88% 30.01 in - ENE 6.7 mph - N/A   Clear
11:00 PM 60.8 °F 57.2 °F 88% 30.01 in - East 6.7 mph - N/A   Clear
11:30 PM 60.8 °F 57.2 °F 88% 30.01 in - East 6.7 mph - N/A   Clear